Temperature
18 18 17 17 17 17 17 16 16 16 16 16 16 15 15 15 15 15 15 15 15 14 14 14 14 14 14 14 14 14 13 13 13 13 13 13 13 13 12 12 13 13 13
18 18 17 17 17 17 17 16 16 16 16 16 16 16 15 15 15 15 15 15 14 14 14 14 14 14 14 14 14 13 13 13 13 13 13 12 12 12 12 12 12 12 12
18 18 17 17 17 17 17 16 16 16 16 16 16 15 15 15 15 15 15 15 14 14 14 14 14 14 14 13 13 13 13 13 13 13 13 13 12 12 12 12 12 12 12
18 18 18 17 17 17 17 16 16 16 16 16 16 15 15 15 15 15 15 15 14 14 14 14 14 14 14 14 13 13 13 13 13 13 13 13 13 12 12 12 12 12 12
18 18 18 18 17 17 17 17 16 16 16 16 16 16 15 15 15 15 15 15 14 14 14 14 14 14 13 13 13 13 13 13 13 13 13 13 13 12 12 12 12 12 12
17 17 17 17 17 17 17 17 16 16 16 16 16 16 15 15 15 15 15 15 14 14 14 14 14 14 14 13 13 13 13 13 13 13 13 13 13 13 13 12 12 12 12
17 17 17 17 17 17 17 17 16 16 16 16 16 15 15 15 15 15 15 15 15 14 14 14 14 14 14 14 13 13 13 13 13 13 13 13 13 13 13 12 12 12 12
17 17 17 17 17 17 17 17 17 16 16 16 15 15 15 15 15 15 15 15 15 15 14 14 14 14 14 14 14 14 13 13 13 13 13 13 13 13 13 12 12 12 12
17 17 17 17 17 17 17 17 16 16 16 16 15 15 15 15 15 15 15 15 15 15 14 14 14 14 14 14 14 14 14 13 13 13 13 13 13 13 13 12 12 12 12
16 17 17 17 17 17 16 16 16 16 16 16 15 15 15 15 15 15 15 15 15 15 14 14 14 14 14 14 14 14 14 13 13 13 13 13 13 13 13 12 12 12 12
16 16 16 16 16 16 16 16 16 16 15 15 15 15 15 15 15 15 15 14 14 14 14 14 14 14 14 14 14 14 13 13 13 13 13 13 13 13 13 12 12 12 12
16 16 16 16 16 16 16 16 15 15 15 15 15 15 15 15 15 15 14 14 14 14 14 14 14 14 14 14 14 14 13 13 13 13 13 13 13 13 12 12 12 12 12
16 16 16 16 16 15 15 15 15 15 15 15 15 15 15 15 14 14 14 14 14 14 14 14 14 14 14 14 13 13 13 13 13 13 13 13 13 12 12 12 12 12 12
16 16 16 16 15 15 15 15 15 15 15 15 15 15 15 14 14 14 14 14 14 14 14 14 14 13 13 13 13 13 13 13 13 13 13 13 13 12 12 12 12 12 12
15 15 15 15 15 15 15 15 15 15 15 15 14 15 14 14 14 14 14 14 14 14 14 13 13 13 13 13 13 13 13 13 13 13 13 13 12 12 12 12 12 12 11
14 14 14 15 15 15 15 15 15 14 14 14 14 14 14 14 14 14 14 14 14 14 13 13 13 13 13 13 13 13 13 12 12 12 12 12 12 12 12 12 12 12 11
14 14 14 14 14 14 14 14 14 14 14 14 14 14 14 14 13 13 13 13 13 13 13 13 13 13 12 12 12 12 12 12 12 12 12 12 12 12 12 12 12 12 11
14 14 14 14 14 14 14 14 14 14 13 13 13 13 13 13 13 13 13 13 13 13 13 13 12 12 12 12 12 12 12 12 12 12 12 12 12 12 12 11 11 11 11
14 14 14 14 14 13 13 13 13 13 13 13 12 12 12 12 12 12 12 12 12 12 12 12 12 12 12 12 12 12 11 11 11 11 11 11 11 11 11 11 11 11 11
13 13 13 13 13 13 13 13 12 12 12 12 12 12 12 12 12 12 12 12 12 12 12 12 11 11 11 11 11 11 11 11 11 11 11 11 11 11 11 11 11 11 11
13 13 13 13 13 12 12 12 12 12 12 11 11 11 11 11 11 11 11 11 11 11 11 11 11 11 11 11 11 11 11 11 11 11 10 10 10 10 10 10 10 10 10
12 12 12 12 12 11 11 11 11 11 11 11 11 11 10 10 11 11 11 11 11 11 11 11 11 11 11 11 11 10 10 10 10 10 10 10 10 10 10 10 10 10 9
12 11 11 11 11 11 10 10 10 10 10 10 10 10 10 10 10 10 10 10 10 10 10 10 10 10 10 10 10 10 10 10 10 10 10 10 10 9 9 9 9 9 9
11 11 11 11 10 10 10 10 10 10 10 10 10 10 9 10 10 10 9 10 10 9 10 10 10 10 10 10 10 10 9 9 9 9 9 9 9 9 9 9 9 9 9
10 10 10 10 10 10 10 9 9 9 9 9 9 9 9 9 9 9 9 9 9 9 9 9 9 9 9 9 9 9 9 9 9 9 9 9 9 9 9 9 8 8 8
10 10 10 9 9 9 9 9 9 9 9 8 8 8 8 8 8 8 8 8 8 8 8 8 8 8 8 9 8 8 8 8 8 8 8 8 8 8 8 8 8 8 8
Wind_Speed
5 3 3 3 3 3 4 4 5 4 3 3 2 2 1 1 1 2 3 5 6 7 6 4 4 4 3 3 4 4 4 3 2 3 3 4 4 5 4 5 5 7 8
3 3 3 3 4 4 4 4 4 4 4 3 3 2 2 1 1 2 3 3 5 6 6 5 3 3 4 4 3 3 3 2 2 2 2 2 4 4 4 4 4 4 6
7 5 4 5 4 5 5 5 5 4 4 4 3 3 3 3 2 1 1 1 3 4 4 5 4 4 4 4 3 3 4 2 1 2 3 2 1 2 3 3 4 4 4
6 5 5 5 5 6 5 5 5 5 4 5 5 4 4 3 2 2 1 1 2 4 4 4 4 4 3 4 3 3 2 3 2 1 2 2 3 2 1 3 3 3 3
6 6 6 6 5 4 4 5 5 4 4 5 5 5 3 3 2 1 2 1 1 2 3 4 4 3 3 3 3 3 2 2 3 2 2 2 2 2 2 1 3 3 3
3 4 4 3 3 3 3 5 5 4 5 5 5 6 6 4 3 2 2 1 1 1 2 3 3 3 3 4 4 3 3 2 2 2 2 2 2 2 2 2 1 1 2
2 2 3 3 3 3 4 5 5 4 4 5 5 5 6 5 5 4 4 3 2 2 3 3 3 3 3 4 4 3 3 4 3 3 2 2 2 2 3 3 1 0 2
1 2 3 4 4 5 4 5 5 5 5 5 5 4 4 4 4 5 4 5 4 4 4 4 3 3 3 3 3 3 3 3 3 3 3 2 2 3 3 3 3 1 1
1 1 1 2 3 3 3 4 5 5 5 5 4 4 4 4 4 4 4 3 3 3 4 4 4 3 3 3 3 3 3 3 3 3 3 2 2 2 2 3 3 4 2
0 0 1 1 2 2 2 2 3 4 4 4 4 4 4 4 4 3 4 4 3 3 3 4 4 4 4 3 3 3 3 3 2 2 3 2 2 2 2 2 2 3 4
0 0 0 0 0 1 2 2 2 2 2 3 3 3 3 4 4 4 4 4 3 3 4 4 4 4 4 4 4 4 4 3 3 2 3 3 2 2 2 3 3 3 3
1 0 0 1 2 1 1 2 2 2 2 3 3 3 3 3 4 4 4 4 4 3 3 3 4 4 4 4 4 4 4 4 4 4 3 3 3 3 3 3 3 3 3
1 1 1 1 0 0 1 2 2 3 2 2 2 2 3 4 4 5 4 4 4 3 3 3 4 4 4 4 4 5 4 5 5 4 5 4 4 4 3 4 4 3 3
0 1 1 0 0 1 1 1 2 1 2 2 2 2 3 3 4 4 4 4 4 4 4 4 5 5 4 4 4 5 5 4 4 4 5 5 6 6 6 5 5 4 4
1 1 1 1 1 1 1 1 2 1 1 2 2 2 3 2 2 2 3 3 3 4 4 4 4 4 4 5 5 5 5 4 4 4 4 5 6 7 6 5 6 6 5
2 1 1 1 1 2 2 2 2 1 1 2 3 2 1 1 1 2 2 3 3 3 3 4 4 4 5 6 7 6 5 4 4 4 4 4 5 6 7 7 8 9 7
2 1 2 2 3 2 2 2 3 1 1 2 2 1 1 2 2 1 1 3 3 3 3 4 4 4 5 7 7 8 5 5 5 5 4 3 3 4 4 6 7 8 9
2 2 2 2 2 2 1 1 1 0 0 1 2 1 1 2 2 1 2 2 2 2 3 4 4 4 5 7 7 7 5 4 4 5 5 5 5 4 5 4 3 4 6
2 2 2 2 1 1 1 1 1 1 0 1 2 3 2 2 2 3 3 2 2 2 2 3 3 4 5 5 6 5 3 3 4 4 4 5 5 6 6 5 4 4 4
2 1 1 0 1 2 0 1 1 1 1 3 3 3 2 3 4 4 3 2 2 3 2 2 3 4 4 5 5 5 3 3 3 3 3 6 6 6 7 6 6 5 5
2 2 1 1 2 1 0 1 0 2 3 3 3 2 2 3 3 3 2 2 2 2 2 2 3 3 4 5 5 5 4 4 4 3 3 4 6 7 7 7 6 8 5
2 2 1 2 2 1 1 1 2 4 2 1 2 2 2 2 2 1 2 1 2 2 2 2 3 3 3 4 5 6 6 5 4 4 4 4 6 6 6 5 6 6 4
1 1 1 2 2 2 2 2 4 3 2 1 2 2 2 2 1 1 2 1 1 1 2 2 3 3 3 3 5 5 6 6 4 4 5 5 5 5 4 5 5 4 2
2 1 1 2 3 3 3 3 3 2 1 1 2 2 2 2 2 1 1 2 2 2 2 3 3 3 3 2 2 2 3 3 3 3 3 3 3 3 3 3 3 3 3
3 2 2 3 4 4 3 3 2 1 1 2 2 2 2 2 2 2 2 3 3 4 4 4 3 3 4 5 4 3 3 3 4 2 1 1 1 1 1 1 2 2 2
3 3 3 3 4 3 3 3 2 1 1 1 2 2 2 1 1 2 3 4 4 4 4 3 3 3 5 5 4 5 5 4 4 3 2 3 3 4 4 4 3 3 4
Wind_Direction
234 208 195 181 170 169 164 165 161 163 147 132 134 130 139 125 92 91 129 135 134 134 128 118 112 110 112 117 114 105 91 74 71 77 50 28 32 36 26 26 34 31 31
219 210 195 185 186 189 181 170 171 169 168 163 156 145 137 127 118 74 90 124 138 141 143 136 132 127 117 110 114 110 104 80 53 94 85 28 6 8 18 20 25 20 27
207 211 204 200 194 197 194 188 184 177 174 154 119 91 74 61 63 65 75 111 146 145 145 147 140 140 142 148 146 135 127 131 52 65 117 120 224 333 353 11 17 14 20
208 207 205 204 207 210 199 188 183 178 173 157 153 150 155 167 190 175 172 131 136 145 146 147 147 149 149 155 168 155 142 136 138 78 70 119 151 140 348 343 358 8 12
211 209 210 207 210 204 193 186 178 176 169 166 168 159 161 174 153 121 134 137 121 143 155 158 158 161 163 170 174 160 158 154 156 153 136 103 81 104 146 287 331 351 350
223 215 210 196 194 185 182 177 173 181 170 168 169 171 174 166 150 158 171 182 187 183 171 166 171 176 175 182 186 178 174 176 164 164 156 153 153 171 159 184 262 311 321
175 193 200 199 198 190 192 184 174 181 174 171 180 187 186 179 182 189 194 195 200 210 208 188 190 187 192 192 181 175 185 185 182 183 183 179 180 160 154 151 173 294 315
164 188 201 199 202 203 197 185 181 182 177 181 192 191 187 185 199 201 199 204 210 215 205 196 199 196 191 190 177 184 192 183 189 194 185 182 189 170 167 163 153 138 330
194 217 204 189 199 203 202 191 186 187 189 191 193 193 192 192 201 203 200 208 216 213 201 199 197 201 197 192 179 188 197 181 191 195 187 186 191 177 176 165 160 157 185
226 218 198 197 201 194 187 159 170 184 183 184 194 198 200 203 201 193 202 209 211 202 189 193 194 197 199 192 181 185 190 178 196 188 175 186 188 171 166 163 160 159 168
313 245 219 191 167 144 147 161 176 169 171 189 201 199 201 205 200 202 212 211 203 199 198 197 189 194 196 190 186 192 185 190 203 195 186 206 182 174 172 159 157 164 157
353 254 105 76 60 88 148 174 187 196 198 195 193 205 208 204 205 214 217 209 203 203 202 195 193 201 199 189 186 195 191 196 207 210 198 214 188 188 181 173 180 184 178
26 33 59 72 67 329 249 214 201 207 202 175 177 197 210 210 216 223 221 212 205 204 202 195 203 208 202 194 199 199 198 202 209 207 206 213 189 203 196 187 189 191 180
60 55 29 337 267 245 258 264 249 214 183 160 166 197 224 227 224 220 217 213 202 203 209 211 214 210 200 199 203 201 204 207 212 213 211 207 199 206 198 193 192 180 168
18 20 325 320 319 325 319 306 292 260 194 170 187 226 238 238 232 223 220 216 213 219 214 212 220 213 205 211 205 201 202 206 216 221 220 216 212 210 198 193 187 177 174
319 316 306 296 287 282 279 285 284 266 202 194 212 223 220 220 239 238 220 211 217 223 214 216 219 221 229 226 211 199 198 202 209 220 227 230 224 225 216 209 194 185 182
279 276 254 245 256 264 262 263 265 260 202 217 227 216 210 221 233 246 235 230 224 212 218 222 216 225 238 232 220 211 196 200 209 212 216 230 226 213 208 217 213 207 208
279 281 274 270 264 269 282 285 321 334 240 272 283 267 238 246 246 222 234 242 231 218 225 230 223 226 244 239 230 219 201 205 214 214 213 217 227 211 190 183 194 213 220
255 255 252 254 279 302 309 354 16 3 301 274 273 270 248 242 239 237 243 241 223 234 232 232 225 230 253 245 229 209 192 209 226 228 221 217 222 217 193 173 188 220 245
287 282 286 283 303 301 343 89 30 33 293 274 269 266 248 237 235 234 237 234 219 228 234 246 239 233 246 249 231 209 189 207 227 235 234 231 226 220 202 189 189 214 237
318 339 351 302 269 274 143 125 359 282 276 284 282 291 274 254 248 245 241 218 208 212 226 247 262 255 253 252 238 216 198 207 213 227 239 239 230 224 217 207 205 222 222
330 345 348 303 290 272 161 233 267 270 284 296 293 287 283 274 284 256 259 231 190 198 227 254 281 278 272 260 248 230 219 206 198 222 231 231 226 223 221 219 226 223 210
284 291 277 293 301 283 213 233 271 283 295 307 294 284 285 283 261 234 232 238 208 214 235 236 257 275 279 269 257 243 233 218 209 220 221 224 219 214 217 220 216 203 183
266 268 278 291 295 290 266 252 273 276 265 270 277 281 272 290 296 267 232 225 228 238 248 246 252 263 270 268 265 253 236 223 223 232 229 230 225 218 219 218 215 207 199
258 250 251 262 275 280 279 278 271 252 238 259 279 284 276 274 288 293 265 244 238 230 232 243 238 244 263 265 250 228 222 208 204 185 174 180 182 194 213 215 210 204 204
251 255 259 263 273 278 285 286 273 230 215 261 279 273 266 268 270 281 309 298 271 274 267 258 247 249 251 270 258 246 241 228 201 177 188 210 211 213 216 217 225 222 219
Height
1531 1533 1534 1535 1537 1538 1539 1541 1542 1543 1544 1544 1545 1546 1547 1548 1548 1549 1550 1550 1551 1551 1551 1552 1552 1552 1552 1552 1552 1552 1552 1552 1552 1552 1552 1553 1553 1552 1552 1552 1551 1551 1551
1529 1531 1532 1534 1535 1536 1538 1539 1540 1541 1543 1544 1545 1546 1547 1547 1548 1549 1550 1550 1551 1551 1551 1552 1552 1552 1552 1552 1553 1552 1552 1553 1553 1553 1553 1553 1555 1553 1553 1553 1552 1552 1552
1526 1528 1530 1532 1533 1534 1536 1537 1539 1540 1541 1543 1544 1545 1546 1547 1548 1548 1549 1550 1551 1551 1551 1552 1552 1552 1553 1553 1553 1553 1553 1553 1553 1553 1554 1554 1554 1554 1554 1553 1553 1553 1552
1524 1526 1528 1529 1531 1532 1534 1536 1537 1539 1540 1541 1542 1543 1544 1545 1547 1548 1549 1549 1550 1551 1551 1552 1552 1552 1553 1553 1553 1553 1553 1553 1553 1554 1554 1554 1554 1554 1554 1554 1554 1553 1553
1522 1524 1526 1527 1529 1531 1532 1534 1536 1537 1539 1540 1541 1542 1543 1545 1546 1547 1548 1549 1550 1550 1551 1551 1552 1552 1552 1553 1553 1553 1553 1553 1554 1554 1554 1554 1554 1554 1554 1554 1554 1553 1553
1521 1522 1524 1526 1528 1529 1531 1532 1534 1535 1537 1538 1539 1541 1542 1543 1545 1546 1547 1547 1548 1549 1549 1550 1551 1551 1552 1552 1552 1553 1553 1553 1553 1554 1554 1554 1554 1553 1553 1553 1553 1553 1553
1519 1520 1522 1524 1525 1527 1529 1530 1532 1533 1535 1536 1538 1539 1541 1542 1543 1544 1545 1546 1546 1547 1548 1548 1549 1550 1550 1551 1551 1552 1552 1552 1553 1553 1553 1553 1553 1553 1553 1553 1552 1552 1552
1518 1519 1520 1522 1524 1525 1527 1528 1530 1532 1533 1535 1536 1538 1539 1541 1542 1543 1543 1544 1544 1545 1546 1547 1547 1548 1549 1549 1550 1550 1551 1551 1551 1552 1552 1552 1552 1552 1552 1552 1552 1551 1551
1517 1518 1519 1521 1522 1524 1525 1527 1528 1530 1532 1533 1535 1536 1537 1539 1540 1541 1542 1542 1543 1543 1544 1545 1545 1546 1547 1548 1548 1548 1549 1549 1550 1550 1550 1550 1551 1551 1551 1551 1551 1552 1550
1517 1518 1519 1520 1522 1523 1524 1526 1527 1528 1529 1531 1533 1534 1535 1536 1538 1539 1539 1540 1541 1541 1542 1543 1543 1544 1545 1545 1546 1546 1547 1547 1548 1548 1549 1549 1549 1549 1549 1550 1550 1550 1550
1517 1518 1519 1520 1521 1522 1524 1524 1525 1526 1528 1529 1530 1532 1532 1534 1535 1536 1537 1538 1539 1539 1540 1541 1541 1542 1542 1543 1544 1544 1545 1545 1546 1546 1547 1547 1547 1548 1548 1548 1548 1548 1548
1517 1518 1519 1519 1520 1521 1522 1523 1524 1525 1526 1527 1528 1529 1530 1531 1532 1533 1534 1535 1536 1537 1537 1538 1539 1539 1540 1541 1541 1542 1543 1543 1544 1544 1545 1545 1545 1546 1546 1546 1546 1547 1547
1517 1518 1518 1519 1519 1520 1521 1522 1522 1523 1524 1525 1525 1526 1527 1528 1529 1530 1531 1532 1532 1533 1534 1535 1536 1537 1537 1538 1538 1539 1540 1540 1541 1542 1542 1543 1543 1543 1544 1544 1544 1545 1545
1516 1517 1517 1518 1518 1519 1520 1520 1521 1522 1522 1523 1523 1524 1524 1525 1526 1526 1527 1528 1529 1530 1531 1532 1532 1533 1534 1535 1535 1536 1537 1537 1538 1539 1539 1540 1540 1541 1541 1541 1542 1542 1542
1516 1516 1516 1517 1517 1518 1518 1519 1519 1520 1520 1521 1521 1521 1522 1522 1523 1523 1524 1525 1526 1527 1527 1528 1529 1529 1530 1531 1531 1532 1533 1533 1534 1535 1536 1536 1537 1538 1538 1538 1539 1539 1539
1515 1515 1515 1516 1516 1516 1516 1517 1517 1517 1518 1518 1518 1519 1519 1520 1520 1520 1520 1521 1522 1523 1523 1524 1525 1526 1526 1527 1528 1528 1529 1529 1530 1531 1532 1533 1533 1534 1535 1535 1536 1536 1537
1514 1514 1514 1514 1514 1514 1515 1515 1515 1515 1515 1515 1515 1516 1516 1516 1517 1517 1518 1518 1518 1519 1519 1520 1521 1521 1522 1523 1523 1524 1525 1525 1526 1527 1527 1528 1529 1530 1531 1532 1532 1533 1533
1513 1513 1513 1513 1513 1513 1513 1513 1513 1513 1513 1513 1513 1513 1513 1513 1514 1514 1514 1514 1515 1515 1515 1516 1517 1517 1518 1519 1519 1520 1520 1521 1521 1522 1523 1524 1525 1526 1527 1527 1528 1529 1529
1512 1512 1511 1511 1511 1511 1510 1510 1510 1510 1510 1510 1510 1510 1510 1510 1511 1511 1511 1511 1511 1511 1512 1512 1513 1513 1514 1515 1515 1516 1516 1516 1517 1518 1519 1520 1521 1522 1523 1523 1523 1524 1525
1510 1510 1509 1509 1509 1508 1508 1507 1507 1507 1507 1507 1507 1507 1507 1507 1507 1507 1507 1507 1508 1508 1508 1508 1509 1509 1510 1510 1511 1511 1512 1512 1512 1513 1514 1515 1516 1517 1518 1518 1519 1519 1520
1508 1508 1507 1507 1506 1506 1505 1505 1504 1504 1504 1504 1504 1504 1504 1504 1504 1504 1504 1503 1504 1504 1504 1504 1505 1505 1506 1506 1507 1507 1507 1508 1508 1508 1509 1510 1511 1512 1513 1513 1514 1514 1515
1505 1505 1505 1504 1503 1503 1503 1502 1502 1501 1501 1501 1501 1501 1500 1501 1501 1500 1500 1500 1499 1499 1500 1500 1500 1501 1501 1501 1502 1502 1503 1504 1504 1504 1505 1506 1507 1508 1508 1508 1509 1510 1510
1503 1503 1502 1502 1501 1500 1500 1499 1499 1499 1498 1498 1498 1497 1497 1497 1497 1497 1496 1496 1496 1496 1495 1495 1495 1496 1496 1497 1497 1497 1498 1499 1499 1499 1501 1502 1503 1503 1503 1504 1504 1505 1505
1501 1500 1500 1499 1498 1498 1497 1497 1496 1496 1495 1494 1494 1494 1494 1493 1493 1493 1492 1492 1492 1492 1491 1491 1491 1491 1492 1492 1492 1492 1493 1494 1494 1495 1496 1497 1498 1498 1499 1499 1499 1500 1500
1498 1497 1497 1496 1495 1495 1494 1494 1493 1492 1492 1491 1491 1490 1490 1490 1489 1488 1488 1488 1488 1488 1487 1487 1487 1487 1487 1487 1488 1488 1488 1489 1490 1490 1491 1491 1492 1493 1493 1494 1494 1494 1495
1494 1494 1493 1492 1492 1491 1490 1490 1490 1489 1488 1487 1487 1486 1486 1485 1485 1484 1484 1483 1484 1483 1483 1482 1483 1482 1483 1483 1483 1484 1484 1484 1485 1485 1485 1486 1486 1487 1487 1488 1488 1489 1489